Time,TemperatureF,DewpointF,PressureIn,WindDirection,WindDirectionDegrees,WindSpeedMPH,WindSpeedGustMPH,Humidity,HourlyPrecipIn,Conditions,Clouds,dailyrainin,SoftwareType,DateUTC
2013-02-14 00:00:00,43.5,41.6,30.53,SSW,209,0.0,3.0,93,0.00,,OVC060,0.00,VWS V14.01,2013-02-14 08:00:00,
2013-02-14 00:05:00,43.5,41.6,30.54,SSW,209,0.0,3.0,93,0.00,,BKN055,0.00,VWS V14.01,2013-02-14 08:05:00,
2013-02-14 00:10:00,43.5,41.9,30.54,SSW,209,0.0,3.0,94,0.00,,BKN055,0.00,VWS V14.01,2013-02-14 08:10:00,
2013-02-14 00:15:00,43.5,41.9,30.54,SSW,209,0.0,3.0,94,0.00,,OVC055,0.00,VWS V14.01,2013-02-14 08:15:00,
2013-02-14 00:20:00,43.5,41.9,30.54,SSW,209,0.0,3.0,94,0.00,,OVC055,0.00,VWS V14.01,2013-02-14 08:20:00,
2013-02-14 00:25:00,43.5,41.9,30.54,SSW,209,2.0,3.0,94,0.00,,OVC055,0.00,VWS V14.01,2013-02-14 08:25:00,
2013-02-14 00:30:00,43.5,41.9,30.54,SSW,209,0.0,3.0,94,0.00,,OVC055,0.00,VWS V14.01,2013-02-14 08:30:00,
2013-02-14 00:35:00,43.6,42.0,30.54,SSW,209,0.0,3.0,94,0.00,,OVC055,0.00,VWS V14.01,2013-02-14 08:35:00,
2013-02-14 00:40:00,43.5,41.9,30.54,SSW,209,1.0,3.0,94,0.00,,OVC055,0.00,VWS V14.01,2013-02-14 08:40:00,
2013-02-14 00:45:00,43.5,41.9,30.54,SSW,209,0.0,3.0,94,0.00,,OVC055,0.00,VWS V14.01,2013-02-14 08:45:00,
2013-02-14 00:50:00,43.5,41.9,30.54,SSW,209,0.0,3.0,94,0.00,,OVC055,0.00,VWS V14.01,2013-02-14 08:50:00,
2013-02-14 00:55:00,43.4,41.8,30.54,SSW,209,2.0,4.0,94,0.00,,OVC055,0.00,VWS V14.01,2013-02-14 08:55:00,
2013-02-14 01:00:00,43.3,41.4,30.54,SSW,209,0.0,4.0,93,0.00,,OVC055,0.00,VWS V14.01,2013-02-14 09:00:00,
2013-02-14 01:05:00,43.2,41.3,30.54,SSW,209,2.0,3.0,93,0.00,,OVC050,0.00,VWS V14.01,2013-02-14 09:05:00,
2013-02-14 01:10:00,43.0,41.1,30.54,SSW,209,0.0,3.0,93,0.00,,OVC050,0.00,VWS V14.01,2013-02-14 09:10:00,
2013-02-14 01:15:00,42.8,41.2,30.54,SSW,209,0.0,2.0,94,0.00,,OVC050,0.00,VWS V14.01,2013-02-14 09:15:00,
2013-02-14 01:20:00,42.6,41.0,30.54,SSW,209,0.0,0.0,94,0.00,,OVC050,0.00,VWS V14.01,2013-02-14 09:20:00,
2013-02-14 01:25:00,42.4,40.8,30.54,SSW,209,0.0,0.0,94,0.00,,OVC050,0.00,VWS V14.01,2013-02-14 09:25:00,
2013-02-14 01:30:00,42.3,40.7,30.53,SSW,209,0.0,1.0,94,0.00,,OVC050,0.00,VWS V14.01,2013-02-14 09:30:00,
2013-02-14 01:35:00,42.1,40.5,30.53,SSW,209,0.0,1.0,94,0.00,,OVC050,0.00,VWS V14.01,2013-02-14 09:35:00,
2013-02-14 01:40:00,41.9,40.3,30.53,SSW,209,0.0,1.0,94,0.00,,OVC050,0.00,VWS V14.01,2013-02-14 09:40:00,
2013-02-14 01:45:00,41.6,40.0,30.54,SSW,209,0.0,0.0,94,0.00,,OVC050,0.00,VWS V14.01,2013-02-14 09:45:00,
2013-02-14 01:50:00,41.4,39.8,30.54,SSW,209,0.0,0.0,94,0.00,,OVC050,0.00,VWS V14.01,2013-02-14 09:50:00,
2013-02-14 01:55:00,41.2,39.6,30.54,SSW,209,0.0,0.0,94,0.00,,OVC050,0.00,VWS V14.01,2013-02-14 09:55:00,
2013-02-14 02:00:00,41.1,39.8,30.54,SSW,209,1.0,2.0,95,0.00,,OVC050,0.00,VWS V14.01,2013-02-14 10:00:00,
2013-02-14 02:05:00,41.0,39.7,30.55,SSW,209,0.0,2.0,95,0.00,,OVC050,0.00,VWS V14.01,2013-02-14 10:05:00,
2013-02-14 02:10:00,40.8,39.5,30.55,SSW,209,0.0,2.0,95,0.00,,OVC050,0.00,VWS V14.01,2013-02-14 10:10:00,
2013-02-14 02:15:00,40.7,39.4,30.54,SSW,209,0.0,0.0,95,0.00,,BKN050,0.00,VWS V14.01,2013-02-14 10:15:00,
2013-02-14 02:20:00,40.5,39.2,30.54,SSW,209,0.0,0.0,95,0.00,,BKN050,0.00,VWS V14.01,2013-02-14 10:20:00,
2013-02-14 02:25:00,40.6,39.5,30.54,SSW,209,0.0,2.0,96,0.00,,BKN050,0.00,VWS V14.01,2013-02-14 10:25:00,
2013-02-14 02:30:00,40.5,39.5,30.54,SSW,209,0.0,2.0,96,0.00,,BKN050,0.00,VWS V14.01,2013-02-14 10:30:00,
2013-02-14 02:35:00,40.5,39.5,30.54,SSW,209,0.0,0.0,96,0.00,,BKN050,0.00,VWS V14.01,2013-02-14 10:35:00,
2013-02-14 02:40:00,40.5,39.5,30.54,SSW,209,0.0,0.0,96,0.00,,BKN050,0.00,VWS V14.01,2013-02-14 10:40:00,
2013-02-14 02:45:00,40.5,39.5,30.54,SSW,209,0.0,0.0,96,0.00,,BKN050,0.00,VWS V14.01,2013-02-14 10:45:00,
2013-02-14 02:50:00,40.4,39.3,30.54,SSW,209,0.0,0.0,96,0.00,,BKN050,0.00,VWS V14.01,2013-02-14 10:50:00,
2013-02-14 02:55:00,40.3,39.2,30.54,SSW,209,0.0,0.0,96,0.00,,BKN050,0.00,VWS V14.01,2013-02-14 10:55:00,
2013-02-14 03:00:00,40.1,39.0,30.54,SSW,209,0.0,0.0,96,0.00,,BKN050,0.00,VWS V14.01,2013-02-14 11:00:00,
2013-02-14 03:05:00,39.9,38.8,30.54,SSW,209,0.0,1.0,96,0.00,,FEW050,0.00,VWS V14.01,2013-02-14 11:05:00,
2013-02-14 03:10:00,39.7,38.7,30.54,SSW,209,0.0,1.0,96,0.00,,FEW050,0.00,VWS V14.01,2013-02-14 11:10:00,
2013-02-14 03:15:00,39.5,38.2,30.54,SSW,209,0.0,1.0,95,0.00,,FEW050,0.00,VWS V14.01,2013-02-14 11:15:00,
2013-02-14 03:20:00,39.2,37.9,30.54,SSW,209,0.0,0.0,95,0.00,,FEW050,0.00,VWS V14.01,2013-02-14 11:20:00,
2013-02-14 03:25:00,39.0,37.7,30.54,SSW,209,0.0,1.0,95,0.00,,,0.00,VWS V14.01,2013-02-14 11:25:00,
2013-02-14 03:30:00,38.7,37.7,30.54,SSW,209,0.0,1.0,96,0.00,,,0.00,VWS V14.01,2013-02-14 11:30:00,
2013-02-14 03:35:00,38.6,37.6,30.55,SSW,209,0.0,0.0,96,0.00,,,0.00,VWS V14.01,2013-02-14 11:35:00,
2013-02-14 03:40:00,38.5,37.5,30.55,SSW,209,0.0,1.0,96,0.00,,,0.00,VWS V14.01,2013-02-14 11:40:00,
2013-02-14 03:45:00,38.5,37.5,30.55,SSW,209,0.0,1.0,96,0.00,,,0.00,VWS V14.01,2013-02-14 11:45:00,
2013-02-14 03:50:00,38.4,37.4,30.55,SSW,209,0.0,0.0,96,0.00,,,0.00,VWS V14.01,2013-02-14 11:50:00,
2013-02-14 03:55:00,38.3,37.3,30.55,SSW,209,0.0,1.0,96,0.00,,,0.00,VWS V14.01,2013-02-14 11:55:00,
2013-02-14 04:00:00,38.4,37.6,30.55,SSW,209,0.0,2.0,97,0.00,,,0.00,VWS V14.01,2013-02-14 12:00:00,
2013-02-14 04:05:00,38.3,37.5,30.55,SSW,209,0.0,2.0,97,0.00,,,0.00,VWS V14.01,2013-02-14 12:05:00,
2013-02-14 04:10:00,38.2,37.2,30.55,SSW,209,0.0,2.0,96,0.00,,,0.00,VWS V14.01,2013-02-14 12:10:00,
2013-02-14 04:15:00,38.0,37.0,30.55,SSW,209,0.0,0.0,96,0.00,,,0.00,VWS V14.01,2013-02-14 12:15:00,
2013-02-14 04:20:00,38.0,37.0,30.55,SSW,209,0.0,0.0,96,0.00,,,0.00,VWS V14.01,2013-02-14 12:20:00,
2013-02-14 04:25:00,38.0,37.2,30.55,SSW,209,0.0,0.0,97,0.00,,,0.00,VWS V14.01,2013-02-14 12:25:00,
2013-02-14 04:30:00,38.0,37.2,30.55,SSW,209,0.0,0.0,97,0.00,,,0.00,VWS V14.01,2013-02-14 12:30:00,
2013-02-14 04:35:00,38.1,37.3,30.55,SSW,209,0.0,0.0,97,0.00,,,0.00,VWS V14.01,2013-02-14 12:35:00,
2013-02-14 04:40:00,38.1,37.3,30.55,SSW,209,0.0,0.0,97,0.00,,,0.00,VWS V14.01,2013-02-14 12:40:00,
2013-02-14 04:45:00,38.3,37.5,30.55,SSW,209,0.0,0.0,97,0.00,,,0.00,VWS V14.01,2013-02-14 12:45:00,
2013-02-14 04:50:00,38.7,37.9,30.55,SSW,209,2.0,2.0,97,0.00,,,0.00,VWS V14.01,2013-02-14 12:50:00,
2013-02-14 04:55:00,39.0,38.2,30.55,SSW,209,3.0,3.0,97,0.00,,,0.00,VWS V14.01,2013-02-14 12:55:00,
2013-02-14 05:00:00,39.1,38.3,30.55,SSW,209,0.0,3.0,97,0.00,,,0.00,VWS V14.01,2013-02-14 13:00:00,
2013-02-14 05:05:00,39.2,38.4,30.55,SSW,209,0.0,3.0,97,0.00,,OVC009,0.00,VWS V14.01,2013-02-14 13:05:00,
2013-02-14 05:10:00,39.2,38.4,30.56,SSW,209,0.0,3.0,97,0.00,,OVC009,0.00,VWS V14.01,2013-02-14 13:10:00,
2013-02-14 05:15:00,39.3,38.5,30.55,SSW,209,2.0,3.0,97,0.00,,OVC009,0.00,VWS V14.01,2013-02-14 13:15:00,
2013-02-14 05:19:00,39.3,38.5,30.56,SSW,209,2.0,3.0,97,0.00,,OVC009,0.00,VWS V14.01,2013-02-14 13:19:00,
2013-02-14 05:24:00,39.3,38.5,30.56,SSW,209,2.0,3.0,97,0.00,,OVC009,0.00,VWS V14.01,2013-02-14 13:24:00,
2013-02-14 05:29:00,39.2,38.4,30.57,SSW,209,3.0,4.0,97,0.00,,OVC009,0.00,VWS V14.01,2013-02-14 13:29:00,
2013-02-14 05:30:00,38.2,37.4,30.56,SSW,209,0.0,0.0,97,0.00,,OVC017,0.00,VWS V14.01,2013-02-14 13:30:00,
2013-02-14 05:34:00,39.1,38.3,30.56,SSW,209,0.0,4.0,97,0.00,,OVC009,0.00,VWS V14.01,2013-02-14 13:34:00,
2013-02-14 05:39:00,39.0,38.2,30.57,SSW,209,0.0,3.0,97,0.00,,OVC009,0.00,VWS V14.01,2013-02-14 13:39:00,
2013-02-14 05:44:00,39.0,38.2,30.57,SSW,209,0.0,2.0,97,0.00,,BKN045,0.00,VWS V14.01,2013-02-14 13:44:00,
2013-02-14 05:49:00,39.0,38.2,30.57,SSW,209,0.0,1.0,97,0.00,,BKN045,0.00,VWS V14.01,2013-02-14 13:49:00,
2013-02-14 05:54:00,39.0,38.2,30.56,SSW,209,0.0,0.0,97,0.00,,BKN045,0.00,VWS V14.01,2013-02-14 13:54:00,
2013-02-14 05:59:00,39.0,38.2,30.57,SSW,209,0.0,0.0,97,0.00,,BKN045,0.00,VWS V14.01,2013-02-14 13:59:00,
2013-02-14 06:00:00,37.7,36.9,30.55,SSW,209,0.0,3.0,97,0.00,,OVC036,0.00,VWS V14.01,2013-02-14 14:00:00,
2013-02-14 06:04:00,38.9,38.1,30.56,SSW,209,0.0,0.0,97,0.00,,SCT045,0.00,VWS V14.01,2013-02-14 14:04:00,
2013-02-14 06:09:00,38.7,37.9,30.56,SSW,209,1.0,2.0,97,0.00,,SCT045,0.00,VWS V14.01,2013-02-14 14:09:00,
2013-02-14 06:14:00,38.7,37.9,30.56,SSW,209,0.0,3.0,97,0.00,,SCT045,0.00,VWS V14.01,2013-02-14 14:14:00,
2013-02-14 06:19:00,38.6,37.8,30.56,SSW,209,0.0,3.0,97,0.00,,SCT045,0.00,VWS V14.01,2013-02-14 14:19:00,
2013-02-14 06:24:00,38.4,37.6,30.56,SSW,209,0.0,0.0,97,0.00,,SCT045,0.00,VWS V14.01,2013-02-14 14:24:00,
2013-02-14 06:29:00,38.2,37.4,30.56,SSW,209,0.0,0.0,97,0.00,,SCT045,0.00,VWS V14.01,2013-02-14 14:29:00,
2013-02-14 06:30:00,37.4,36.6,30.57,SSW,209,0.0,0.0,97,0.00,,OVC017,0.00,VWS V14.01,2013-02-14 14:30:00,
2013-02-14 06:34:00,38.1,37.3,30.56,SSW,209,0.0,0.0,97,0.00,,SCT045,0.00,VWS V14.01,2013-02-14 14:34:00,
2013-02-14 06:39:00,38.0,37.2,30.56,SSW,209,0.0,0.0,97,0.00,,SCT045,0.00,VWS V14.01,2013-02-14 14:39:00,
2013-02-14 06:44:00,37.9,37.1,30.56,SSW,209,0.0,0.0,97,0.00,,BKN045,0.00,VWS V14.01,2013-02-14 14:44:00,
2013-02-14 06:49:00,37.8,37.0,30.56,SSW,209,0.0,0.0,97,0.00,,BKN045,0.00,VWS V14.01,2013-02-14 14:49:00,
2013-02-14 06:54:00,37.8,37.0,30.55,SSW,209,0.0,3.0,97,0.00,,BKN045,0.00,VWS V14.01,2013-02-14 14:54:00,
2013-02-14 06:59:00,37.7,36.9,30.55,SSW,209,0.0,3.0,97,0.00,,BKN045,0.00,VWS V14.01,2013-02-14 14:59:00,
2013-02-14 07:00:00,39.4,38.9,30.58,SSW,209,0.0,2.0,98,0.00,,OVC036,0.00,VWS V14.01,2013-02-14 15:00:00,
2013-02-14 07:04:00,37.7,36.9,30.56,SSW,209,0.0,1.0,97,0.00,,,0.00,VWS V14.01,2013-02-14 15:04:00,
2013-02-14 07:09:00,37.5,36.7,30.56,SSW,209,0.0,1.0,97,0.00,,,0.00,VWS V14.01,2013-02-14 15:09:00,
2013-02-14 07:14:00,37.5,36.7,30.56,SSW,209,0.0,1.0,97,0.00,,,0.00,VWS V14.01,2013-02-14 15:14:00,
2013-02-14 07:19:00,37.4,36.6,30.57,SSW,209,0.0,1.0,97,0.00,,,0.00,VWS V14.01,2013-02-14 15:19:00,
2013-02-14 07:24:00,37.4,36.6,30.57,SSW,209,0.0,0.0,97,0.00,,,0.00,VWS V14.01,2013-02-14 15:24:00,
2013-02-14 07:29:00,37.4,36.6,30.57,SSW,209,0.0,0.0,97,0.00,,,0.00,VWS V14.01,2013-02-14 15:29:00,
2013-02-14 07:30:00,41.0,40.5,30.59,SSW,209,0.0,1.0,98,0.00,,OVC017,0.00,VWS V14.01,2013-02-14 15:30:00,
2013-02-14 07:34:00,37.5,36.7,30.58,SSW,209,0.0,0.0,97,0.00,,,0.00,VWS V14.01,2013-02-14 15:34:00,
2013-02-14 07:39:00,37.8,37.3,30.58,SSW,209,0.0,0.0,98,0.00,,,0.00,VWS V14.01,2013-02-14 15:39:00,
2013-02-14 07:44:00,38.1,37.6,30.58,SSW,209,0.0,0.0,98,0.00,,,0.00,VWS V14.01,2013-02-14 15:44:00,
2013-02-14 07:49:00,38.4,37.9,30.58,SSW,209,0.0,1.0,98,0.00,,,0.00,VWS V14.01,2013-02-14 15:49:00,
2013-02-14 07:54:00,38.8,38.3,30.58,SSW,209,0.0,1.0,98,0.00,,,0.00,VWS V14.01,2013-02-14 15:54:00,
2013-02-14 07:59:00,39.3,38.8,30.58,SSW,209,0.0,2.0,98,0.00,,,0.00,VWS V14.01,2013-02-14 15:59:00,
2013-02-14 08:00:00,41.9,41.4,30.59,SSW,209,0.0,0.0,98,0.00,,OVC017,0.00,VWS V14.01,2013-02-14 16:00:00,
2013-02-14 08:04:00,40.0,39.5,30.58,SSW,209,0.0,2.0,98,0.00,,OVC007,0.00,VWS V14.01,2013-02-14 16:04:00,
2013-02-14 08:09:00,40.6,40.1,30.58,SSW,209,0.0,0.0,98,0.00,,OVC007,0.00,VWS V14.01,2013-02-14 16:09:00,
2013-02-14 08:14:00,40.9,40.4,30.59,SSW,209,0.0,0.0,98,0.00,,OVC007,0.00,VWS V14.01,2013-02-14 16:14:00,
2013-02-14 08:19:00,41.2,40.7,30.59,SSW,209,0.0,0.0,98,0.00,,OVC007,0.00,VWS V14.01,2013-02-14 16:19:00,
2013-02-14 08:24:00,41.2,40.7,30.59,SSW,209,0.0,1.0,98,0.00,,OVC007,0.00,VWS V14.01,2013-02-14 16:24:00,
2013-02-14 08:29:00,41.0,40.5,30.59,SSW,209,0.0,1.0,98,0.00,,OVC007,0.00,VWS V14.01,2013-02-14 16:29:00,
2013-02-14 08:30:00,42.6,42.1,30.59,SSW,209,0.0,2.0,98,0.00,,OVC017,0.00,VWS V14.01,2013-02-14 16:30:00,
2013-02-14 08:34:00,41.0,40.5,30.59,SSW,209,0.0,0.0,98,0.00,,OVC007,0.00,VWS V14.01,2013-02-14 16:34:00,
2013-02-14 08:39:00,41.0,40.5,30.59,SSW,209,0.0,0.0,98,0.00,,OVC007,0.00,VWS V14.01,2013-02-14 16:39:00,
2013-02-14 08:44:00,41.3,40.8,30.59,SSW,209,0.0,0.0,98,0.00,,OVC007,0.00,VWS V14.01,2013-02-14 16:44:00,
2013-02-14 08:49:00,41.5,41.0,30.59,SSW,209,0.0,0.0,98,0.00,,OVC007,0.00,VWS V14.01,2013-02-14 16:49:00,
2013-02-14 08:54:00,41.7,41.2,30.59,SSW,209,0.0,0.0,98,0.00,,OVC007,0.00,VWS V14.01,2013-02-14 16:54:00,
2013-02-14 08:59:00,41.8,41.3,30.59,SSW,209,0.0,0.0,98,0.00,,OVC007,0.00,VWS V14.01,2013-02-14 16:59:00,
2013-02-14 09:00:00,43.2,42.7,30.58,SSW,209,0.0,4.0,98,0.00,,OVC017,0.00,VWS V14.01,2013-02-14 17:00:00,
2013-02-14 09:04:00,42.0,41.5,30.60,SSW,209,0.0,1.0,98,0.00,,BKN007,0.00,VWS V14.01,2013-02-14 17:04:00,
2013-02-14 09:09:00,42.1,41.6,30.60,SSW,209,0.0,2.0,98,0.00,,BKN007,0.00,VWS V14.01,2013-02-14 17:09:00,
2013-02-14 09:14:00,42.3,41.8,30.60,SSW,209,2.0,2.0,98,0.00,,BKN007,0.00,VWS V14.01,2013-02-14 17:14:00,
2013-02-14 09:19:00,42.4,41.9,30.60,SSW,209,0.0,2.0,98,0.00,,BKN007,0.00,VWS V14.01,2013-02-14 17:19:00,
2013-02-14 09:24:00,42.4,41.9,30.60,SSW,209,0.0,2.0,98,0.00,,BKN007,0.00,VWS V14.01,2013-02-14 17:24:00,
2013-02-14 09:29:00,42.6,42.1,30.59,SSW,209,0.0,2.0,98,0.00,,BKN007,0.00,VWS V14.01,2013-02-14 17:29:00,
2013-02-14 09:30:00,45.2,44.1,30.58,SSW,209,3.0,3.0,96,0.00,,OVC017,0.00,VWS V14.01,2013-02-14 17:30:00,
2013-02-14 09:34:00,42.7,42.2,30.59,SSW,209,0.0,0.0,98,0.00,,BKN007,0.00,VWS V14.01,2013-02-14 17:34:00,
2013-02-14 09:39:00,42.7,42.2,30.59,SSW,209,0.0,0.0,98,0.00,,BKN007,0.00,VWS V14.01,2013-02-14 17:39:00,
2013-02-14 09:44:00,42.8,42.3,30.59,SSW,209,0.0,0.0,98,0.00,,BKN007,0.00,VWS V14.01,2013-02-14 17:44:00,
2013-02-14 09:49:00,43.0,42.5,30.59,SSW,209,0.0,0.0,98,0.00,,BKN007,0.00,VWS V14.01,2013-02-14 17:49:00,
2013-02-14 09:54:00,43.1,42.6,30.59,SSW,209,0.0,0.0,98,0.00,,BKN007,0.00,VWS V14.01,2013-02-14 17:54:00,
2013-02-14 09:59:00,43.2,42.7,30.58,SSW,209,3.0,4.0,98,0.00,,BKN007,0.00,VWS V14.01,2013-02-14 17:59:00,
2013-02-14 10:00:00,48.5,45.4,30.58,SSW,209,6.0,6.0,89,0.00,,OVC036,0.00,VWS V14.01,2013-02-14 18:00:00,
2013-02-14 10:04:00,43.6,43.1,30.58,SSW,209,0.0,4.0,98,0.00,,,0.00,VWS V14.01,2013-02-14 18:04:00,
2013-02-14 10:09:00,44.1,43.6,30.59,SSW,209,0.0,4.0,98,0.00,,,0.00,VWS V14.01,2013-02-14 18:09:00,
2013-02-14 10:14:00,44.4,43.6,30.59,SSW,209,0.0,0.0,97,0.00,,,0.00,VWS V14.01,2013-02-14 18:14:00,
2013-02-14 10:19:00,44.5,43.4,30.58,SSW,209,2.0,3.0,96,0.00,,,0.00,VWS V14.01,2013-02-14 18:19:00,
2013-02-14 10:24:00,44.5,43.4,30.58,SSW,209,0.0,3.0,96,0.00,,,0.00,VWS V14.01,2013-02-14 18:24:00,
2013-02-14 10:29:00,45.0,43.9,30.58,SSW,209,1.0,3.0,96,0.00,,,0.00,VWS V14.01,2013-02-14 18:29:00,
2013-02-14 10:30:00,49.6,45.6,30.58,SSW,209,0.0,6.0,86,0.00,,OVC017,0.00,VWS V14.01,2013-02-14 18:30:00,
2013-02-14 10:34:00,45.5,43.9,30.58,SSW,209,0.0,3.0,94,0.00,,,0.00,VWS V14.01,2013-02-14 18:34:00,
2013-02-14 10:39:00,46.0,44.7,30.58,SSW,209,3.0,4.0,95,0.00,,,0.00,VWS V14.01,2013-02-14 18:39:00,
2013-02-14 10:44:00,47.3,45.1,30.57,SSW,209,0.0,4.0,92,0.00,,,0.00,VWS V14.01,2013-02-14 18:44:00,
2013-02-14 10:49:00,47.8,44.7,30.58,SSW,209,1.0,4.0,89,0.00,,,0.00,VWS V14.01,2013-02-14 18:49:00,
2013-02-14 10:54:00,47.7,45.2,30.58,SSW,209,0.0,4.0,91,0.00,,,0.00,VWS V14.01,2013-02-14 18:54:00,
2013-02-14 10:59:00,48.3,44.9,30.58,SSW,209,2.0,4.0,88,0.00,,,0.00,VWS V14.01,2013-02-14 18:59:00,
2013-02-14 11:00:00,51.7,46.1,30.57,SSW,209,0.0,5.0,81,0.00,,OVC017,0.00,VWS V14.01,2013-02-14 19:00:00,
2013-02-14 11:04:00,49.2,45.5,30.58,SSW,209,2.0,7.0,87,0.00,,OVC005,0.00,VWS V14.01,2013-02-14 19:04:00,
2013-02-14 11:09:00,48.5,44.5,30.58,SSW,209,2.0,7.0,86,0.00,,OVC005,0.00,VWS V14.01,2013-02-14 19:09:00,
2013-02-14 11:14:00,48.9,45.5,30.58,SSW,209,0.0,6.0,88,0.00,,OVC005,0.00,VWS V14.01,2013-02-14 19:14:00,
2013-02-14 11:19:00,49.2,45.5,30.58,SSW,209,2.0,6.0,87,0.00,,OVC005,0.00,VWS V14.01,2013-02-14 19:19:00,
2013-02-14 11:24:00,48.7,44.7,30.58,SSW,209,0.0,4.0,86,0.00,,OVC005,0.00,VWS V14.01,2013-02-14 19:24:00,
2013-02-14 11:29:00,49.5,45.2,30.58,SSW,209,4.0,6.0,85,0.00,,OVC005,0.00,VWS V14.01,2013-02-14 19:29:00,
2013-02-14 11:30:00,52.7,46.7,30.56,SSW,209,6.0,6.0,80,0.00,,OVC017,0.00,VWS V14.01,2013-02-14 19:30:00,
2013-02-14 11:34:00,49.7,45.1,30.57,SSW,209,4.0,6.0,84,0.00,,BKN200,0.00,VWS V14.01,2013-02-14 19:34:00,
2013-02-14 11:39:00,49.8,45.5,30.57,SSW,209,0.0,5.0,85,0.00,,BKN200,0.00,VWS V14.01,2013-02-14 19:39:00,
2013-02-14 11:44:00,50.2,45.6,30.57,SSW,209,0.0,5.0,84,0.00,,BKN200,0.00,VWS V14.01,2013-02-14 19:44:00,
2013-02-14 11:49:00,50.5,47.1,30.57,SSW,209,1.0,4.0,88,0.00,,BKN200,0.00,VWS V14.01,2013-02-14 19:49:00,
2013-02-14 11:54:00,51.3,47.0,30.57,SSW,209,4.0,5.0,85,0.00,,BKN200,0.00,VWS V14.01,2013-02-14 19:54:00,
2013-02-14 11:59:00,51.5,45.9,30.57,SSW,209,0.0,5.0,81,0.00,,BKN200,0.00,VWS V14.01,2013-02-14 19:59:00,
2013-02-14 12:00:00,54.1,48.1,30.55,NNW,345,2.0,8.0,80,0.00,,OVC036,0.00,VWS V14.01,2013-02-14 20:00:00,
2013-02-14 12:04:00,52.4,46.8,30.57,SSW,209,0.0,4.0,81,0.00,,BKN200,0.00,VWS V14.01,2013-02-14 20:04:00,
2013-02-14 12:09:00,51.8,45.8,30.57,SSW,209,0.0,4.0,80,0.00,,BKN200,0.00,VWS V14.01,2013-02-14 20:09:00,
2013-02-14 12:14:00,52.8,46.8,30.57,SSW,209,0.0,6.0,80,0.00,,BKN200,0.00,VWS V14.01,2013-02-14 20:14:00,
2013-02-14 12:19:00,52.6,46.9,30.56,SSW,209,4.0,6.0,81,0.00,,BKN200,0.00,VWS V14.01,2013-02-14 20:19:00,
2013-02-14 12:24:00,52.5,46.8,30.56,SSW,209,0.0,6.0,81,0.00,,BKN200,0.00,VWS V14.01,2013-02-14 20:24:00,
2013-02-14 12:29:00,52.6,47.3,30.56,SSW,209,2.0,5.0,82,0.00,,BKN200,0.00,VWS V14.01,2013-02-14 20:29:00,
2013-02-14 12:34:00,52.8,46.1,30.56,WNW,282,5.0,7.0,78,0.00,,BKN200,0.00,VWS V14.01,2013-02-14 20:34:00,
2013-02-14 12:39:00,52.8,46.8,30.56,NW,306,2.0,7.0,80,0.00,,BKN200,0.00,VWS V14.01,2013-02-14 20:39:00,
2013-02-14 12:44:00,52.3,46.3,30.56,NW,316,3.0,8.0,80,0.00,,BKN200,0.00,VWS V14.01,2013-02-14 20:44:00,
2013-02-14 12:49:00,52.2,46.2,30.56,NNW,342,5.0,8.0,80,0.00,,BKN200,0.00,VWS V14.01,2013-02-14 20:49:00,
2013-02-14 12:54:00,53.0,47.7,30.55,NNW,343,4.0,8.0,82,0.00,,BKN200,0.00,VWS V14.01,2013-02-14 20:54:00,
2013-02-14 12:59:00,54.1,48.1,30.55,NNW,345,0.0,8.0,80,0.00,,BKN200,0.00,VWS V14.01,2013-02-14 20:59:00,
2013-02-14 13:00:00,53.7,46.7,30.54,NNE,17,0.0,8.0,77,0.00,,OVC017,0.00,VWS V14.01,2013-02-14 21:00:00,
2013-02-14 13:04:00,53.4,47.7,30.55,NNE,17,4.0,11.0,81,0.00,,SCT050,0.00,VWS V14.01,2013-02-14 21:04:00,
2013-02-14 13:09:00,53.0,46.7,30.55,NNE,17,4.0,11.0,79,0.00,,SCT050,0.00,VWS V14.01,2013-02-14 21:09:00,
2013-02-14 13:14:00,53.1,47.8,30.55,NNE,17,5.0,10.0,82,0.00,,SCT050,0.00,VWS V14.01,2013-02-14 21:14:00,
2013-02-14 13:19:00,53.2,47.5,30.55,NNE,12,2.0,10.0,81,0.00,,SCT050,0.00,VWS V14.01,2013-02-14 21:19:00,
2013-02-14 13:24:00,53.4,47.4,30.55,North,7,6.0,8.0,80,0.00,,SCT050,0.00,VWS V14.01,2013-02-14 21:24:00,
2013-02-14 13:29:00,53.2,46.9,30.55,North,7,7.0,8.0,79,0.00,,SCT050,0.00,VWS V14.01,2013-02-14 21:29:00,
2013-02-14 13:30:00,54.6,45.4,30.52,NE,37,4.0,12.0,71,0.00,,OVC017,0.00,VWS V14.01,2013-02-14 21:30:00,
2013-02-14 13:34:00,53.2,47.2,30.55,NNE,17,8.0,9.0,80,0.00,,SCT050,0.00,VWS V14.01,2013-02-14 21:34:00,
2013-02-14 13:39:00,53.0,47.7,30.54,NNE,31,6.0,11.0,82,0.00,,SCT050,0.00,VWS V14.01,2013-02-14 21:39:00,
2013-02-14 13:44:00,53.1,46.8,30.54,NNE,25,6.0,12.0,79,0.00,,SCT050,0.00,VWS V14.01,2013-02-14 21:44:00,
2013-02-14 13:49:00,53.5,46.8,30.54,NNE,33,3.0,12.0,78,0.00,,SCT050,0.00,VWS V14.01,2013-02-14 21:49:00,
2013-02-14 13:54:00,53.8,47.5,30.54,NNE,25,7.0,10.0,79,0.00,,SCT050,0.00,VWS V14.01,2013-02-14 21:54:00,
2013-02-14 13:59:00,53.7,47.0,30.54,NNE,17,4.0,8.0,78,0.00,,SCT050,0.00,VWS V14.01,2013-02-14 21:59:00,
2013-02-14 14:00:00,55.2,46.3,30.51,NNE,17,9.0,11.0,72,0.00,,OVC017,0.00,VWS V14.01,2013-02-14 22:00:00,
2013-02-14 14:04:00,54.1,47.1,30.54,NNE,28,3.0,13.0,77,0.00,,SCT200,0.00,VWS V14.01,2013-02-14 22:04:00,
2013-02-14 14:09:00,53.9,45.8,30.53,NNE,12,0.0,13.0,74,0.00,,SCT200,0.00,VWS V14.01,2013-02-14 22:09:00,
2013-02-14 14:14:00,54.1,46.4,30.53,NNE,17,2.0,10.0,75,0.00,,SCT200,0.00,VWS V14.01,2013-02-14 22:14:00,
2013-02-14 14:19:00,54.7,46.6,30.53,NNE,12,6.0,10.0,74,0.00,,SCT200,0.00,VWS V14.01,2013-02-14 22:19:00,
2013-02-14 14:24:00,54.8,46.0,30.53,NNE,17,4.0,11.0,72,0.00,,SCT200,0.00,VWS V14.01,2013-02-14 22:24:00,
2013-02-14 14:29:00,54.8,47.0,30.52,NNE,23,2.0,12.0,75,0.00,,SCT200,0.00,VWS V14.01,2013-02-14 22:29:00,
2013-02-14 14:30:00,55.6,46.4,30.51,North,358,4.0,12.0,71,0.00,,OVC017,0.00,VWS V14.01,2013-02-14 22:30:00,
2013-02-14 14:34:00,54.6,47.2,30.52,NE,35,12.0,12.0,76,0.00,,SCT200,0.00,VWS V14.01,2013-02-14 22:34:00,
2013-02-14 14:39:00,54.9,46.8,30.52,NNE,27,5.0,12.0,74,0.00,,SCT200,0.00,VWS V14.01,2013-02-14 22:39:00,
2013-02-14 14:44:00,55.3,45.3,30.52,North,356,7.0,12.0,69,0.00,,SCT200,0.00,VWS V14.01,2013-02-14 22:44:00,
2013-02-14 14:49:00,55.3,46.4,30.52,North,359,7.0,11.0,72,0.00,,SCT200,0.00,VWS V14.01,2013-02-14 22:49:00,
2013-02-14 14:54:00,55.5,46.3,30.52,NNE,17,2.0,11.0,71,0.00,,SCT200,0.00,VWS V14.01,2013-02-14 22:54:00,
2013-02-14 14:59:00,55.2,46.0,30.51,NNE,21,9.0,11.0,71,0.00,,SCT200,0.00,VWS V14.01,2013-02-14 22:59:00,
2013-02-14 15:00:00,55.0,46.2,30.51,North,357,9.0,10.0,72,0.00,,OVC017,0.00,VWS V14.01,2013-02-14 23:00:00,
2013-02-14 15:04:00,55.3,46.4,30.51,North,2,5.0,11.0,72,0.00,,SCT200,0.00,VWS V14.01,2013-02-14 23:04:00,
2013-02-14 15:09:00,55.3,46.1,30.51,NNE,17,5.0,11.0,71,0.00,,SCT200,0.00,VWS V14.01,2013-02-14 23:09:00,
2013-02-14 15:14:00,55.3,46.4,30.51,North,359,8.0,11.0,72,0.00,,SCT200,0.00,VWS V14.01,2013-02-14 23:14:00,
2013-02-14 15:19:00,55.3,46.1,30.51,NNE,17,8.0,10.0,71,0.00,,SCT200,0.00,VWS V14.01,2013-02-14 23:19:00,
2013-02-14 15:24:00,55.3,46.1,30.51,NNE,17,8.0,11.0,71,0.00,,SCT200,0.00,VWS V14.01,2013-02-14 23:24:00,
2013-02-14 15:29:00,55.5,47.0,30.51,North,356,9.0,12.0,73,0.00,,SCT200,0.00,VWS V14.01,2013-02-14 23:29:00,
2013-02-14 15:30:00,54.2,45.4,30.50,North,354,8.0,9.0,72,0.00,,OVC036,0.00,VWS V14.01,2013-02-14 23:30:00,
2013-02-14 15:34:00,55.8,46.2,30.51,North,3,0.0,12.0,70,0.00,,SCT200,0.00,VWS V14.01,2013-02-14 23:34:00,
2013-02-14 15:39:00,55.8,46.9,30.51,NE,37,12.0,12.0,72,0.00,,SCT200,0.00,VWS V14.01,2013-02-14 23:39:00,
2013-02-14 15:44:00,55.6,46.0,30.51,NE,34,6.0,12.0,70,0.00,,SCT200,0.00,VWS V14.01,2013-02-14 23:44:00,
2013-02-14 15:49:00,55.4,46.2,30.51,NNE,12,8.0,12.0,71,0.00,,SCT200,0.00,VWS V14.01,2013-02-14 23:49:00,
2013-02-14 15:54:00,55.2,46.3,30.51,NNE,17,6.0,11.0,72,0.00,,SCT200,0.00,VWS V14.01,2013-02-14 23:54:00,
2013-02-14 15:59:00,55.0,46.2,30.51,North,358,6.0,10.0,72,0.00,,SCT200,0.00,VWS V14.01,2013-02-14 23:59:00,
2013-02-14 16:00:00,52.8,45.8,30.50,North,7,1.0,10.0,77,0.00,,OVC017,0.00,VWS V14.01,2013-02-15 00:00:00,
2013-02-14 16:04:00,54.8,45.6,30.51,NNE,12,10.0,11.0,71,0.00,,SCT200,0.00,VWS V14.01,2013-02-15 00:04:00,
2013-02-14 16:09:00,54.6,46.1,30.50,North,7,6.0,11.0,73,0.00,,SCT200,0.00,VWS V14.01,2013-02-15 00:09:00,
2013-02-14 16:14:00,54.5,46.0,30.50,NNE,24,6.0,11.0,73,0.00,,SCT200,0.00,VWS V14.01,2013-02-15 00:14:00,
2013-02-14 16:18:00,54.5,46.0,30.50,NNE,17,0.0,11.0,73,0.00,,SCT200,0.00,VWS V14.01,2013-02-15 00:18:00,
2013-02-14 16:23:00,54.4,45.9,30.50,North,7,6.0,8.0,73,0.00,,SCT200,0.00,VWS V14.01,2013-02-15 00:23:00,
2013-02-14 16:28:00,54.3,45.5,30.50,NNW,346,9.0,9.0,72,0.00,,SCT200,0.00,VWS V14.01,2013-02-15 00:28:00,
2013-02-14 16:30:00,51.9,44.2,30.50,NNE,12,3.0,9.0,75,0.00,,OVC036,0.00,VWS V14.01,2013-02-15 00:30:00,
2013-02-14 16:33:00,54.0,45.2,30.50,North,357,4.0,9.0,72,0.00,,SCT200,0.00,VWS V14.01,2013-02-15 00:33:00,
2013-02-14 16:38:00,53.8,45.4,30.50,North,356,5.0,10.0,73,0.00,,SCT200,0.00,VWS V14.01,2013-02-15 00:38:00,
2013-02-14 16:43:00,53.5,45.4,30.50,North,360,5.0,11.0,74,0.00,,SCT200,0.00,VWS V14.01,2013-02-15 00:43:00,
2013-02-14 16:48:00,53.2,45.5,30.50,NNE,17,5.0,11.0,75,0.00,,SCT200,0.00,VWS V14.01,2013-02-15 00:48:00,
2013-02-14 16:53:00,53.1,45.8,30.50,North,7,4.0,9.0,76,0.00,,SCT200,0.00,VWS V14.01,2013-02-15 00:53:00,
2013-02-14 16:58:00,52.9,45.5,30.49,North,7,6.0,10.0,76,0.00,,SCT200,0.00,VWS V14.01,2013-02-15 00:58:00,
2013-02-14 17:00:00,50.5,43.6,30.50,North,354,5.0,10.0,77,0.00,,OVC017,0.00,VWS V14.01,2013-02-15 01:00:00,
2013-02-14 17:03:00,52.7,45.7,30.49,North,3,7.0,10.0,77,0.00,,SCT200,0.00,VWS V14.01,2013-02-15 01:03:00,
2013-02-14 17:08:00,52.5,45.2,30.50,North,7,7.0,9.0,76,0.00,,SCT200,0.00,VWS V14.01,2013-02-15 01:08:00,
2013-02-14 17:13:00,52.3,44.6,30.50,NNE,22,6.0,13.0,75,0.00,,SCT200,0.00,VWS V14.01,2013-02-15 01:13:00,
2013-02-14 17:18:00,52.3,45.0,30.50,North,7,10.0,13.0,76,0.00,,SCT200,0.00,VWS V14.01,2013-02-15 01:18:00,
2013-02-14 17:23:00,52.1,44.8,30.50,NNE,17,2.0,12.0,76,0.00,,SCT200,0.00,VWS V14.01,2013-02-15 01:23:00,
2013-02-14 17:28:00,51.9,44.2,30.50,NNE,12,5.0,11.0,75,0.00,,SCT200,0.00,VWS V14.01,2013-02-15 01:28:00,
2013-02-14 17:30:00,49.0,43.1,30.50,NNE,17,4.0,8.0,80,0.00,,OVC017,0.00,VWS V14.01,2013-02-15 01:30:00,
2013-02-14 17:33:00,51.6,44.0,30.50,NNE,12,9.0,10.0,75,0.00,,SCT200,0.00,VWS V14.01,2013-02-15 01:33:00,
2013-02-14 17:38:00,51.5,44.2,30.50,North,7,3.0,10.0,76,0.00,,SCT200,0.00,VWS V14.01,2013-02-15 01:38:00,
2013-02-14 17:43:00,51.2,43.9,30.50,NNE,12,5.0,9.0,76,0.00,,SCT200,0.00,VWS V14.01,2013-02-15 01:43:00,
2013-02-14 17:48:00,51.0,44.0,30.50,North,7,5.0,11.0,77,0.00,,SCT200,0.00,VWS V14.01,2013-02-15 01:48:00,
2013-02-14 17:53:00,50.8,43.9,30.50,NNE,17,4.0,11.0,77,0.00,,SCT200,0.00,VWS V14.01,2013-02-15 01:53:00,
2013-02-14 17:58:00,50.5,43.6,30.50,North,7,4.0,10.0,77,0.00,,SCT200,0.00,VWS V14.01,2013-02-15 01:58:00,
2013-02-14 18:00:00,48.3,43.1,30.50,NNE,12,2.0,9.0,82,0.00,,OVC017,0.00,VWS V14.01,2013-02-15 02:00:00,
2013-02-14 18:03:00,50.3,43.7,30.50,North,3,7.0,10.0,78,0.00,,SCT200,0.00,VWS V14.01,2013-02-15 02:03:00,
2013-02-14 18:08:00,50.2,43.6,30.50,North,7,6.0,10.0,78,0.00,,SCT200,0.00,VWS V14.01,2013-02-15 02:08:00,
2013-02-14 18:13:00,49.9,43.7,30.50,NNE,17,6.0,9.0,79,0.00,,SCT200,0.00,VWS V14.01,2013-02-15 02:13:00,
2013-02-14 18:18:00,49.6,43.4,30.50,NNE,17,3.0,9.0,79,0.00,,SCT200,0.00,VWS V14.01,2013-02-15 02:18:00,
2013-02-14 18:23:00,49.4,43.5,30.50,NNE,17,3.0,8.0,80,0.00,,SCT200,0.00,VWS V14.01,2013-02-15 02:23:00,
2013-02-14 18:28:00,49.1,43.2,30.50,NNE,17,2.0,8.0,80,0.00,,SCT200,0.00,VWS V14.01,2013-02-15 02:28:00,
2013-02-14 18:30:00,47.5,42.9,30.50,NNE,12,0.0,3.0,84,0.00,,OVC036,0.00,VWS V14.01,2013-02-15 02:30:00,
2013-02-14 18:33:00,48.9,43.0,30.50,NNE,17,6.0,7.0,80,0.00,,SCT200,0.00,VWS V14.01,2013-02-15 02:33:00,
2013-02-14 18:38:00,48.8,43.2,30.50,NNE,17,4.0,7.0,81,0.00,,SCT200,0.00,VWS V14.01,2013-02-15 02:38:00,
2013-02-14 18:43:00,48.6,43.0,30.50,North,7,5.0,10.0,81,0.00,,SCT200,0.00,VWS V14.01,2013-02-15 02:43:00,
2013-02-14 18:48:00,48.5,43.0,30.50,NNE,12,6.0,10.0,81,0.00,,SCT200,0.00,VWS V14.01,2013-02-15 02:48:00,
2013-02-14 18:53:00,48.4,43.2,30.50,North,7,3.0,9.0,82,0.00,,SCT200,0.00,VWS V14.01,2013-02-15 02:53:00,
2013-02-14 18:58:00,48.4,43.2,30.50,NNE,12,5.0,9.0,82,0.00,,SCT200,0.00,VWS V14.01,2013-02-15 02:58:00,
2013-02-14 19:00:00,46.1,42.5,30.49,North,359,3.0,8.0,87,0.00,,OVC017,0.00,VWS V14.01,2013-02-15 03:00:00,
2013-02-14 19:03:00,48.4,43.2,30.50,NNE,12,0.0,9.0,82,0.00,,SCT200,0.00,VWS V14.01,2013-02-15 03:03:00,
2013-02-14 19:08:00,48.3,43.1,30.50,NNE,12,0.0,6.0,82,0.00,,SCT200,0.00,VWS V14.01,2013-02-15 03:08:00,
2013-02-14 19:13:00,48.2,43.3,30.50,NNE,12,0.0,5.0,83,0.00,,CLR,0.00,VWS V14.01,2013-02-15 03:13:00,
2013-02-14 19:18:00,48.0,43.4,30.50,NNE,12,0.0,5.0,84,0.00,,CLR,0.00,VWS V14.01,2013-02-15 03:18:00,
2013-02-14 19:23:00,47.8,43.2,30.50,NNE,12,0.0,4.0,84,0.00,,CLR,0.00,VWS V14.01,2013-02-15 03:23:00,
2013-02-14 19:28:00,47.6,43.0,30.50,NNE,12,0.0,3.0,84,0.00,,CLR,0.00,VWS V14.01,2013-02-15 03:28:00,
2013-02-14 19:30:00,45.9,42.5,30.49,North,360,1.0,7.0,88,0.00,,OVC017,0.00,VWS V14.01,2013-02-15 03:30:00,
2013-02-14 19:33:00,47.3,42.7,30.50,NNE,12,0.0,3.0,84,0.00,,CLR,0.00,VWS V14.01,2013-02-15 03:33:00,
2013-02-14 19:38:00,47.1,42.8,30.50,NNE,12,0.0,3.0,85,0.00,,CLR,0.00,VWS V14.01,2013-02-15 03:38:00,
2013-02-14 19:43:00,46.8,42.5,30.50,NNE,12,3.0,4.0,85,0.00,,CLR,0.00,VWS V14.01,2013-02-15 03:43:00,
2013-02-14 19:48:00,46.5,42.5,30.49,NNE,12,4.0,7.0,86,0.00,,CLR,0.00,VWS V14.01,2013-02-15 03:48:00,
2013-02-14 19:53:00,46.3,42.3,30.49,North,1,4.0,8.0,86,0.00,,CLR,0.00,VWS V14.01,2013-02-15 03:53:00,
2013-02-14 19:58:00,46.1,42.5,30.49,North,360,7.0,8.0,87,0.00,,CLR,0.00,VWS V14.01,2013-02-15 03:58:00,
2013-02-14 20:00:00,45.4,42.1,30.49,North,7,4.0,7.0,88,0.00,,OVC017,0.00,VWS V14.01,2013-02-15 04:00:00,
2013-02-14 20:03:00,46.0,42.3,30.49,North,1,6.0,10.0,87,0.00,,CLR,0.00,VWS V14.01,2013-02-15 04:03:00,
2013-02-14 20:08:00,45.9,42.3,30.49,North,1,4.0,10.0,87,0.00,,CLR,0.00,VWS V14.01,2013-02-15 04:08:00,
2013-02-14 20:13:00,45.8,42.2,30.49,North,360,3.0,8.0,87,0.00,,CLR,0.00,VWS V14.01,2013-02-15 04:13:00,
2013-02-14 20:18:00,45.7,42.4,30.49,North,357,0.0,8.0,88,0.00,,CLR,0.00,VWS V14.01,2013-02-15 04:18:00,
2013-02-14 20:23:00,45.6,42.0,30.49,North,358,0.0,8.0,87,0.00,,CLR,0.00,VWS V14.01,2013-02-15 04:23:00,
2013-02-14 20:28:00,45.8,42.5,30.49,North,360,0.0,7.0,88,0.00,,CLR,0.00,VWS V14.01,2013-02-15 04:28:00,
2013-02-14 20:30:00,45.1,42.1,30.49,North,359,0.0,6.0,89,0.00,,OVC017,0.00,VWS V14.01,2013-02-15 04:30:00,
2013-02-14 20:33:00,46.1,42.5,30.50,North,360,5.0,7.0,87,0.00,,CLR,0.00,VWS V14.01,2013-02-15 04:33:00,
2013-02-14 20:38:00,46.1,42.5,30.49,North,1,6.0,6.0,87,0.00,,CLR,0.00,VWS V14.01,2013-02-15 04:38:00,
2013-02-14 20:43:00,46.1,42.5,30.49,North,2,7.0,7.0,87,0.00,,CLR,0.00,VWS V14.01,2013-02-15 04:43:00,
2013-02-14 20:48:00,46.0,42.3,30.50,North,3,4.0,7.0,87,0.00,,CLR,0.00,VWS V14.01,2013-02-15 04:48:00,
2013-02-14 20:53:00,45.7,42.1,30.49,North,7,7.0,7.0,87,0.00,,CLR,0.00,VWS V14.01,2013-02-15 04:53:00,
2013-02-14 20:58:00,45.5,42.2,30.49,North,7,3.0,7.0,88,0.00,,CLR,0.00,VWS V14.01,2013-02-15 04:58:00,
2013-02-14 21:00:00,45.4,42.1,30.49,North,7,4.0,7.0,88,0.00,,CLR,0.00,VWS V14.01,2013-02-15 05:00:00,
2013-02-14 21:05:00,45.2,42.2,30.49,North,7,3.0,7.0,89,0.00,,CLR,0.00,VWS V14.01,2013-02-15 05:05:00,
2013-02-14 21:10:00,45.1,42.1,30.49,North,7,4.0,7.0,89,0.00,,CLR,0.00,VWS V14.01,2013-02-15 05:10:00,
2013-02-14 21:15:00,45.1,42.1,30.49,North,2,5.0,8.0,89,0.00,,CLR,0.00,VWS V14.01,2013-02-15 05:15:00,
2013-02-14 21:20:00,45.1,42.1,30.49,North,2,5.0,8.0,89,0.00,,CLR,0.00,VWS V14.01,2013-02-15 05:20:00,
2013-02-14 21:25:00,45.0,42.2,30.49,North,359,2.0,5.0,90,0.00,,CLR,0.00,VWS V14.01,2013-02-15 05:25:00,
2013-02-14 21:30:00,45.1,42.1,30.49,North,360,0.0,6.0,89,0.00,,CLR,0.00,VWS V14.01,2013-02-15 05:30:00,
2013-02-14 21:35:00,45.1,42.1,30.49,North,360,3.0,6.0,89,0.00,,CLR,0.00,VWS V14.01,2013-02-15 05:35:00,
2013-02-14 21:40:00,45.0,42.0,30.49,North,360,2.0,6.0,89,0.00,,CLR,0.00,VWS V14.01,2013-02-15 05:40:00,
2013-02-14 21:45:00,44.8,41.8,30.49,North,360,3.0,5.0,89,0.00,,CLR,0.00,VWS V14.01,2013-02-15 05:45:00,
2013-02-14 21:50:00,44.6,41.8,30.49,North,2,4.0,7.0,90,0.00,,CLR,0.00,VWS V14.01,2013-02-15 05:50:00,
2013-02-14 21:55:00,44.4,41.7,30.48,North,2,4.0,7.0,90,0.00,,CLR,0.00,VWS V14.01,2013-02-15 05:55:00,
2013-02-14 22:00:00,44.2,41.5,30.48,North,360,2.0,7.0,90,0.00,,CLR,0.00,VWS V14.01,2013-02-15 06:00:00,
2013-02-14 22:05:00,44.0,41.3,30.48,North,357,3.0,7.0,90,0.00,,CLR,0.00,VWS V14.01,2013-02-15 06:05:00,
2013-02-14 22:10:00,43.8,41.1,30.49,North,357,0.0,6.0,90,0.00,,CLR,0.00,VWS V14.01,2013-02-15 06:10:00,
2013-02-14 22:15:00,43.5,41.0,30.49,North,357,0.0,6.0,91,0.00,,CLR,0.00,VWS V14.01,2013-02-15 06:15:00,
2013-02-14 22:20:00,43.3,40.8,30.49,North,357,0.0,5.0,91,0.00,,CLR,0.00,VWS V14.01,2013-02-15 06:20:00,
2013-02-14 22:25:00,43.3,40.8,30.49,North,357,3.0,5.0,91,0.00,,CLR,0.00,VWS V14.01,2013-02-15 06:25:00,
2013-02-14 22:30:00,43.2,40.8,30.49,North,357,0.0,5.0,91,0.00,,CLR,0.00,VWS V14.01,2013-02-15 06:30:00,
2013-02-14 22:35:00,43.0,40.8,30.49,North,1,3.0,7.0,92,0.00,,CLR,0.00,VWS V14.01,2013-02-15 06:35:00,
2013-02-14 22:40:00,42.9,40.7,30.48,North,1,2.0,7.0,92,0.00,,CLR,0.00,VWS V14.01,2013-02-15 06:40:00,
2013-02-14 22:45:00,42.8,40.6,30.48,North,1,3.0,7.0,92,0.00,,CLR,0.00,VWS V14.01,2013-02-15 06:45:00,
2013-02-14 22:50:00,42.8,40.9,30.49,North,3,0.0,8.0,93,0.00,,CLR,0.00,VWS V14.01,2013-02-15 06:50:00,
2013-02-14 22:55:00,42.9,41.0,30.49,North,3,0.0,8.0,93,0.00,,CLR,0.00,VWS V14.01,2013-02-15 06:55:00,
2013-02-14 23:00:00,43.1,40.9,30.49,North,3,1.0,3.0,92,0.00,,CLR,0.00,VWS V14.01,2013-02-15 07:00:00,
2013-02-14 23:05:00,43.0,40.8,30.49,North,3,0.0,3.0,92,0.00,,CLR,0.00,VWS V14.01,2013-02-15 07:05:00,
2013-02-14 23:10:00,42.9,41.0,30.49,North,3,4.0,4.0,93,0.00,,CLR,0.00,VWS V14.01,2013-02-15 07:10:00,
2013-02-14 23:15:00,42.7,40.5,30.49,North,3,0.0,5.0,92,0.00,,CLR,0.00,VWS V14.01,2013-02-15 07:15:00,
2013-02-14 23:20:00,42.5,40.6,30.49,North,3,0.0,5.0,93,0.00,,CLR,0.00,VWS V14.01,2013-02-15 07:20:00,
2013-02-14 23:25:00,42.3,40.2,30.49,North,3,0.0,0.0,92,0.00,,CLR,0.00,VWS V14.01,2013-02-15 07:25:00,
2013-02-14 23:30:00,42.0,40.1,30.49,North,3,0.0,0.0,93,0.00,,CLR,0.00,VWS V14.01,2013-02-15 07:30:00,
2013-02-14 23:35:00,41.7,39.8,30.49,North,3,0.0,0.0,93,0.00,,CLR,0.00,VWS V14.01,2013-02-15 07:35:00,
2013-02-14 23:40:00,41.4,39.5,30.49,North,3,0.0,1.0,93,0.00,,CLR,0.00,VWS V14.01,2013-02-15 07:40:00,
2013-02-14 23:45:00,41.1,39.2,30.49,North,3,0.0,3.0,93,0.00,,CLR,0.00,VWS V14.01,2013-02-15 07:45:00,
2013-02-14 23:50:00,40.8,38.9,30.49,North,3,2.0,3.0,93,0.00,,CLR,0.00,VWS V14.01,2013-02-15 07:50:00,
2013-02-14 23:55:00,40.5,38.9,30.49,North,3,1.0,3.0,94,0.00,,CLR,0.00,VWS V14.01,2013-02-15 07:55:00,